Location: Chester
(43.2628°N, 72.5951°W)
Time: 02:03:50
(UTC-05:00)

ISS - Visible Passes

Search period start: 01 December 2021 00:00
Search period end: 11 December 2021 00:00
Orbit: 417 x 423 km, 51.6° (Epoch: 01 December)

Date Brightness Start Highest point End Pass type
(mag) Time Alt. Az. Time Alt. Az. Time Alt. Az.
01 Dec -2.1 17:22:26 10° NW 17:25:08 21° N 17:26:23 18° NE visible
01 Dec -0.6 18:59:07 10° NW 18:59:22 12° NW 18:59:22 12° NW visible
02 Dec -2.4 18:11:59 10° NW 18:14:13 31° NNW 18:14:13 31° NNW visible
03 Dec -2.7 17:24:50 10° NW 17:27:54 30° NNE 17:29:10 23° ENE visible
03 Dec -0.7 19:01:33 10° WNW 19:02:10 14° WNW 19:02:10 14° WNW visible
04 Dec -3.5 18:14:18 10° WNW 18:17:15 64° WNW 18:17:15 64° WNW visible
05 Dec -3.7 17:27:06 10° NW 17:30:29 60° NNE 17:32:30 21° ESE visible
05 Dec -0.6 19:04:31 10° W 19:05:33 15° W 19:05:33 15° W visible
06 Dec -2.0 18:16:53 10° WNW 18:19:57 31° SW 18:21:04 25° S visible
07 Dec -2.9 17:29:29 10° WNW 17:32:48 52° SW 17:36:06 10° SE visible
08 Dec -3.7 16:42:11 10° WNW 16:45:35 86° SW 16:48:59 10° SE visible
08 Dec -0.5 18:20:41 10° WSW 18:21:55 12° SW 18:23:08 10° SSW visible
09 Dec -0.8 17:32:23 10° W 17:34:52 19° SW 17:37:20 10° S visible
10 Dec -1.5 16:44:42 10° WNW 16:47:45 31° SW 16:50:46 10° SSE visible
